STARLINK-3346, 50821

Orbit data source: Space-Track

STARLINK-3346, 50821 is a payload satellite owned by SpaceX/Seattle (US) in LEO that was launched on Thu, 06 Jan 2022 UTC via an FALCON 9 launch vehicle from the Air Force Eastern Test Range (AFETR). Payload-class satellites include a variety of spacecraft equipped with specific instruments for various scientific and technological missions. These include communications satellites like Starlink; space stations such as the ISS; scientific satellites like the Hubble; Earth observation satellites from companies like Planet Labs, Umbra, and HawkEye 360; GPS; miniature CubeSats for education and research; and military/defense satellites.

Loading next visibility...
Identifier
50821, 2022-001U
Orbit
LEO
Country
Flag of USUS
Related business
Manufacturer
SpaceX/Seattle
Mission
Operational Commercial Communications
Bus & Motor
STARLINK, Unknown motor
Mass
297 kg wet, ~275 kg dry
Launch date (UTC)
2022-01-06 (4 years ago)
Launch vehicle
FALCON 9
Launch site
Air Force Eastern Test Range (AFETR)
Object type
Payload
Rocket body
Debris
Shape & HBR
Box + 1 Pan, 10.1 m
Radar Cross Section
13.562 m², Large (>1 m²)

Expand to show TLE details & history
Last TLE update: 3 days ago

TLE from 3 days ago
0 STARLINK-3346
1 50821U 22001U   26170.93322252 -.00000436  00000-0 -92887-5 0  9999
2 50821  53.1627  69.9057 0001684  95.2276 264.8907 15.08833515245846
Epoch: 2026-06-19T22:23Z
TLE epoch observation values (Epoch: 2026-06-19T22:23:50.425Z)
Latitude
-0.00009°
Longitude
-174.20956°
Altitude
540.759 km
Speed
7.593 km/s
True Right ascension
04h 39m 37s
True Declination
0° 00' 00"
Sunlit
Object was in daylight at epoch
Visualization orbit readout
Latitude
Unknown
Longitude
Unknown
Altitude
Unknown
Speed
Unknown
Apparent Right ascension
Unknown
Apparent Declination
Unknown
Sunlit
N/A
Visualization observer readout
Local Sidereal Time
21:28:56
Azimuth
Unknown
Elevation
Unknown
Doppler factor
Unknown
Orbital elements
Apogee altitude
541.182 km
Perigee altitude
538.852 km
Semi-major axis
6,918.154 km
Eccentricity
0.00017
Inclination
53.1627°
RAAN
69.9057°
Arg. of periapsis
95.2276°
True anomaly
264.87148°
Mean anomaly
264.8907°
Eccentric anomaly
264.88109°
Mean motion
3.77188 °/min
Orbital period
95.44 mins
BSTAR
-0.0000092887
Loading maneuver chart data...
Computing Atmospheric mass density...
Loading historical data...
Loading historical data...
Loading historical data...
Loading historical data...
Loading historical data...
Loading historical data...
Loading historical data...

Documentation

Showing up to 5 results
|